STARLINK-34130

Last updated on Sat Jul 19 2025 00:02:08 GMT+0000 (Coordinated Universal Time)

1 64736U 25144N 25199.56439889 -.00627315 00000+0 -50710-2 0 9990 2 64736 53.1584 192.2751 0000966 74.5718 285.5408 15.71958172 3814
UTC large
Height (km)
Speed (km/s)
/
Latitude / Longitude
Inclination (degrees)
Orbital Period (minutes)
Azimuth
Elevation
Range (km)
Doppler Factor

Next 0 passes for location: London (51.5072 / 0.1276)

Sorry there are no passes over London.